When you browse on this site, cookies collect data to enhance your experience and personalize the content and advertising you see.
Visit our Privacy Policy to learn more. By continuing to use the site, you agree to this use of cookies and data.
  • In Portugal
  • List of Countries
  • For 7 days
  • Water Temperature
  • Weather Map
  • Weather Widgets
  • user-avatar
    Login

    Hourly Weather Isfahan

    Today, 21 August, Wednesday

    Time Temperature Precipitation Wind Pressure Humidity
    00:00 +23°C° 0 mm 1 mps 633 mmHg 15%
    01:00 +22°C° 0 mm 1 mps 633 mmHg 16%
    02:00 +22°C° 0 mm 1 mps 632 mmHg 17%
    03:00 +19°C° 0 mm 0 mps 632 mmHg 18%
    04:00 +20°C° 0 mm 0 mps 633 mmHg 17%
    05:00 +20°C° 0 mm 0 mps 633 mmHg 16%
    06:00 +21°C° 0 mm 0 mps 634 mmHg 16%
    07:00 +23°C° 0 mm 0 mps 634 mmHg 14%
    08:00 +25°C° 0 mm 0 mps 635 mmHg 12%
    09:00 +30°C° 0 mm 1 mps 636 mmHg 11%
    10:00 +31°C° 0 mm 1 mps 635 mmHg 10%
    11:00 +32°C° 0 mm 1 mps 635 mmHg 9%
    12:00 +35°C° 0 mm 2 mps 635 mmHg 8%
    13:00 +35°C° 0 mm 2 mps 635 mmHg 8%
    14:00 +36°C° 0 mm 2 mps 635 mmHg 7%
    15:00 +37°C° 0 mm 2 mps 634 mmHg 6%
    16:00 +35°C° 0 mm 3 mps 634 mmHg 7%
    17:00 +34°C° 0 mm 5 mps 634 mmHg 8%
    18:00 +32°C° 0 mm 6 mps 633 mmHg 9%
    19:00 +29°C° 0 mm 5 mps 633 mmHg 11%
    20:00 +27°C° 0 mm 4 mps 633 mmHg 12%
    21:00 +25°C° 0 mm 3 mps 633 mmHg 14%
    22:00 +25°C° 0 mm 2 mps 633 mmHg 14%
    23:00 +24°C° 0 mm 2 mps 632 mmHg 15%

    Tomorrow, 22 August, Thursday

    Time Temperature Precipitation Wind Pressure Humidity
    00:00 +23°C° 0 mm 2 mps 632 mmHg 16%
    01:00 +22°C° 0 mm 1 mps 632 mmHg 17%
    02:00 +21°C° 0 mm 1 mps 631 mmHg 18%
    03:00 +18°C° 0 mm 0 mps 631 mmHg 19%
    04:00 +19°C° 0 mm 0 mps 631 mmHg 19%
    05:00 +20°C° 0 mm 0 mps 632 mmHg 18%
    06:00 +20°C° 0 mm 0 mps 632 mmHg 17%
    07:00 +23°C° 0 mm 0 mps 633 mmHg 15%
    08:00 +27°C° 0 mm 1 mps 634 mmHg 13%
    09:00 +29°C° 0 mm 1 mps 634 mmHg 11%
    10:00 +31°C° 0 mm 1 mps 634 mmHg 10%
    11:00 +32°C° 0 mm 1 mps 634 mmHg 9%
    12:00 +33°C° 0 mm 1 mps 634 mmHg 9%
    13:00 +35°C° 0 mm 2 mps 634 mmHg 8%
    14:00 +35°C° 0 mm 2 mps 633 mmHg 8%
    15:00 +36°C° 0 mm 2 mps 633 mmHg 7%
    16:00 +35°C° 0 mm 3 mps 633 mmHg 8%
    17:00 +33°C° 0 mm 3 mps 633 mmHg 9%
    18:00 +32°C° 0 mm 4 mps 632 mmHg 9%
    19:00 +29°C° 0 mm 3 mps 632 mmHg 11%
    20:00 +28°C° 0 mm 3 mps 632 mmHg 12%
    21:00 +26°C° 0 mm 3 mps 632 mmHg 13%
    22:00 +25°C° 0 mm 2 mps 632 mmHg 15%
    23:00 +24°C° 0 mm 2 mps 632 mmHg 16%

    Day after tomorrow, 23 August, Friday

    Time Temperature Precipitation Wind Pressure Humidity
    00:00 +22°C° 0 mm 1 mps 631 mmHg 17%
    01:00 +22°C° 0 mm 1 mps 631 mmHg 18%
    02:00 +21°C° 0 mm 1 mps 631 mmHg 19%
    03:00 +21°C° 0 mm 1 mps 631 mmHg 19%
    04:00 +22°C° 0 mm 1 mps 631 mmHg 19%
    05:00 +22°C° 0 mm 1 mps 632 mmHg 19%
    06:00 +21°C° 0 mm 0 mps 632 mmHg 18%
    07:00 +25°C° 0 mm 1 mps 633 mmHg 16%
    08:00 +28°C° 0 mm 1 mps 634 mmHg 14%
    09:00 +30°C° 0 mm 1 mps 634 mmHg 12%
    10:00 +31°C° 0 mm 1 mps 635 mmHg 11%
    11:00 +34°C° 0 mm 2 mps 635 mmHg 10%
    12:00 +35°C° 0 mm 2 mps 635 mmHg 8%
    13:00 +35°C° 0 mm 2 mps 634 mmHg 8%
    14:00 +36°C° 0 mm 2 mps 634 mmHg 7%
    15:00 +36°C° 0 mm 2 mps 634 mmHg 7%
    16:00 +35°C° 0 mm 3 mps 634 mmHg 7%
    17:00 +34°C° 0 mm 4 mps 634 mmHg 8%
    18:00 +32°C° 0 mm 4 mps 634 mmHg 8%
    19:00 +30°C° 0 mm 4 mps 634 mmHg 10%
    20:00 +28°C° 0 mm 4 mps 634 mmHg 12%
    21:00 +26°C° 0 mm 3 mps 634 mmHg 14%
    22:00 +25°C° 0 mm 3 mps 633 mmHg 16%
    23:00 +24°C° 0 mm 2 mps 633 mmHg 18%

    24 August, Saturday

    Time Temperature Precipitation Wind Pressure Humidity
    00:00 +23°C° 0 mm 2 mps 632 mmHg 19%
    01:00 +23°C° 0 mm 1 mps 632 mmHg 20%
    02:00 +22°C° 0 mm 1 mps 632 mmHg 21%
    03:00 +19°C° 0 mm 0 mps 631 mmHg 23%
    04:00 +22°C° 0 mm 1 mps 632 mmHg 22%
    05:00 +22°C° 0 mm 1 mps 632 mmHg 21%
    06:00 +23°C° 0 mm 1 mps 633 mmHg 20%
    07:00 +25°C° 0 mm 1 mps 634 mmHg 17%
    08:00 +28°C° 0 mm 1 mps 634 mmHg 15%
    09:00 +30°C° 0 mm 1 mps 635 mmHg 13%
    10:00 +32°C° 0 mm 1 mps 635 mmHg 11%
    11:00 +33°C° 0 mm 1 mps 635 mmHg 10%
    12:00 +35°C° 0 mm 2 mps 635 mmHg 9%
    13:00 +36°C° 0 mm 2 mps 634 mmHg 8%
    14:00 +37°C° 0 mm 2 mps 634 mmHg 7%
    15:00 +37°C° 0 mm 2 mps 634 mmHg 7%
    16:00 +36°C° 0 mm 3 mps 634 mmHg 7%
    17:00 +34°C° 0 mm 3 mps 633 mmHg 8%
    18:00 +33°C° 0 mm 4 mps 633 mmHg 8%
    19:00 +30°C° 0 mm 3 mps 633 mmHg 10%
    20:00 +28°C° 0 mm 3 mps 633 mmHg 11%
    21:00 +27°C° 0 mm 2 mps 632 mmHg 12%
    22:00 +25°C° 0 mm 2 mps 632 mmHg 13%
    23:00 +24°C° 0 mm 1 mps 632 mmHg 14%

    25 August, Sunday

    Time Temperature Precipitation Wind Pressure Humidity
    00:00 +23°C° 0 mm 1 mps 631 mmHg 15%
    01:00 +23°C° 0 mm 1 mps 631 mmHg 16%
    02:00 +20°C° 0 mm 0 mps 631 mmHg 17%
    03:00 +20°C° 0 mm 0 mps 631 mmHg 17%
    04:00 +20°C° 0 mm 0 mps 631 mmHg 17%
    05:00 +21°C° 0 mm 0 mps 632 mmHg 16%
    06:00 +24°C° 0 mm 1 mps 632 mmHg 15%
    07:00 +26°C° 0 mm 1 mps 633 mmHg 13%
    08:00 +29°C° 0 mm 1 mps 634 mmHg 11%
    09:00 +32°C° 0 mm 1 mps 635 mmHg 9%
    10:00 +33°C° 0 mm 1 mps 635 mmHg 8%
    11:00 +34°C° 0 mm 1 mps 634 mmHg 7%
    12:00 +36°C° 0 mm 1 mps 634 mmHg 6%
    13:00 +37°C° 0 mm 2 mps 634 mmHg 6%
    14:00 +38°C° 0 mm 2 mps 634 mmHg 6%
    15:00 +38°C° 0 mm 2 mps 634 mmHg 5%
    16:00 +37°C° 0 mm 2 mps 633 mmHg 6%
    17:00 +35°C° 0 mm 2 mps 633 mmHg 7%
    18:00 +32°C° 0 mm 2 mps 632 mmHg 8%
    19:00 +31°C° 0 mm 3 mps 632 mmHg 9%
    20:00 +29°C° 0 mm 3 mps 633 mmHg 10%
    21:00 +28°C° 0 mm 3 mps 633 mmHg 12%
    22:00 +27°C° 0 mm 3 mps 633 mmHg 13%
    23:00 +25°C° 0 mm 2 mps 632 mmHg 14%

    26 August, Monday

    Time Temperature Precipitation Wind Pressure Humidity
    00:00 +24°C° 0 mm 1 mps 632 mmHg 15%
    01:00 +24°C° 0 mm 1 mps 632 mmHg 15%
    02:00 +23°C° 0 mm 1 mps 632 mmHg 15%
    03:00 +23°C° 0 mm 1 mps 631 mmHg 16%
    04:00 +23°C° 0 mm 1 mps 632 mmHg 15%
    05:00 +24°C° 0 mm 1 mps 633 mmHg 15%
    06:00 +23°C° 0 mm 0 mps 633 mmHg 14%
    07:00 +27°C° 0 mm 1 mps 634 mmHg 12%
    08:00 +30°C° 0 mm 1 mps 635 mmHg 10%
    09:00 +32°C° 0 mm 1 mps 635 mmHg 8%
    10:00 +34°C° 0 mm 1 mps 635 mmHg 8%
    11:00 +35°C° 0 mm 1 mps 635 mmHg 7%
    12:00 +36°C° 0 mm 1 mps 635 mmHg 7%
    13:00 +38°C° 0 mm 2 mps 635 mmHg 7%
    14:00 +38°C° 0 mm 2 mps 635 mmHg 6%
    15:00 +39°C° 0 mm 2 mps 634 mmHg 6%
    16:00 +37°C° 0 mm 3 mps 634 mmHg 7%
    17:00 +36°C° 0 mm 4 mps 634 mmHg 8%
    18:00 +34°C° 0 mm 5 mps 633 mmHg 9%
    19:00 +32°C° 0 mm 4 mps 633 mmHg 10%
    20:00 +29°C° 0 mm 4 mps 633 mmHg 12%
    21:00 +28°C° 0 mm 3 mps 633 mmHg 13%
    22:00 +27°C° 0 mm 2 mps 633 mmHg 13%
    23:00 +26°C° 0 mm 2 mps 633 mmHg 14%
    Show more